Regional Weather Roundup
Issued by NWS

Home | Current Version | Previous Version | Graphics & Text | Print | Product List | Glossary On
Versions: 1 2 3 4 5 6 7 8 9 10 11 12 13 14 15 16 17 18 19 20 21 22 23 24 25 26 27 28 29 30 31 32 33 34 35 36 37 38 39 40 41 42 43 44 45 46 47 48 49 50
000
ASUS43 KOAX 041410
RWRNE

WEATHER ROUNDUP FOR NEBRASKA
NATIONAL WEATHER SERVICE OMAHA NE
800 AM CST SUN DEC 04 2016

NOTES: SATELLITE DATA IS BEING USED TO AUGMENT CLOUD COVER ABOVE
       12000 FEET.
       "FAIR" INDICATES FEW OR NO CLOUDS BELOW 12,000 FEET WITH NO
       SIGNIFICANT WEATHER AND/OR OBSTRUCTIONS TO VISIBILITY.

  * THESE STATIONS DO NOT REPORT WEATHER SUCH AS RAIN...SNOW OR FOG.

NEZ001>004-019>022-054>056-041500-
NEBRASKA PANHANDLE

CITY           SKY/WX    TMP DP  RH WIND       PRES   REMARKS
SCOTTSBLUFF    CLEAR     14   8  77 N7        29.99F WCI   4
ALLIANCE       CLEAR     17  12  80 W9        29.97R WCI   6
CHADRON        CLEAR     21  12  68 SW6       29.97R WCI  13
KIMBALL        CLEAR     24  14  67 W14       29.99S WCI  11
SIDNEY         CLEAR     23  13  65 W12       30.00R WCI  12
$$

NEZ057>060-069>072-079>082-041500-
SOUTHWEST NEBRASKA

CITY           SKY/WX    TMP DP  RH WIND       PRES   REMARKS
NORTH PLATTE   CLEAR     19  15  84 W6        29.99R WCI  11
IMPERIAL       CLEAR     23  14  68 W10       30.01S WCI  12
LEXINGTON      CLEAR     23  20  86 W8        29.99R WCI  14
MCCOOK         CLEAR     22  16  78 W12       30.02R WCI  10
OGALLALA       CLEAR     32  19  57 NW14      29.99F WCI  22
$$

NEZ005>010-023>029-035>040-094-041500-
NORTH CENTRAL NEBRASKA

CITY           SKY/WX    TMP DP  RH WIND       PRES   REMARKS
VALENTINE      CLEAR     20  16  84 SW7       29.92R WCI  11
AINSWORTH      PTCLDY    25  22  86 W6        29.91S WCI  18
BROKEN BOW     CLEAR     32  21  64 W9        29.95R WCI  24
O`NEILL        CLEAR     28  23  84 W8        29.92S WCI  19
ORD            CLEAR     20  17  88 CALM      29.95S
THEDFORD       CLEAR     25  19  79 W7        29.95S WCI  17
$$

NEZ041-046>049-061>064-073>077-083>087-041500-
SOUTH CENTRAL NEBRASKA

CITY           SKY/WX    TMP DP  RH WIND       PRES   REMARKS
GRAND ISLAND   CLEAR     28  27  96 W9        29.98R WCI  19
AURORA         CLEAR     27  27 100 W5        29.97S FOG     WCI  21
HASTINGS       CLEAR     28  26  92 W5        29.99R WCI  23
HEBRON         CLOUDY    32  31  96 W8        30.02R FOG     WCI  25
HOLDREGE       CLEAR     27  21  79 W7        29.99S WCI  19
KEARNEY *      CLEAR     28  19  69 W5        29.98S WCI  23
YORK           FOG       30  30 100 CALM      29.98R VSB 1/2
$$

NEZ011>018-030>034-042>045-041500-
NORTHEAST NEBRASKA

CITY           SKY/WX    TMP DP  RH WIND       PRES   REMARKS
NORFOLK        CLEAR     27  23  85 W7        29.93R WCI  19
ALBION         CLEAR     27  24  85 CALM      29.95S
BLAIR          CLOUDY    33  32  95 SW8       29.97R FOG     WCI  26
FREMONT        CLOUDY    33  32  98 S5        29.97S WCI  28
TEKAMAH        CLOUDY    33  31  92 S8        29.97S WCI  26
WAYNE          CLEAR     27  26  94 CALM      29.92S
$$

NEZ050>053-065>068-078-088>093-041500-
SOUTHEAST NEBRASKA

CITY           SKY/WX    TMP DP  RH WIND       PRES   REMARKS
LINCOLN        CLOUDY    33  31  92 W6        30.01R WCI  28
OMAHA EPPLEY   CLOUDY    34  30  85 SW5       29.98F WCI  30
BEATRICE       CLOUDY    33  32  96 W8        30.00R WCI  26
FALLS CITY     CLOUDY    37  37 100 SW9       29.99S WCI  30
NEBRASKA CITY  CLOUDY    33  33 100 W9        29.99S FOG     WCI  25
PLATTSMOUTH    CLOUDY    32  30  92 W6        29.99R FOG     WCI  27
$$

NEZ044-045-051>053-067-041500-
OMAHA AREA

CITY           SKY/WX    TMP DP  RH WIND       PRES   REMARKS
OMAHA EPPLEY   CLOUDY    34  30  85 SW5       29.98F WCI  30
BLAIR          CLOUDY    33  32  95 SW8       29.97R FOG     WCI  26
FREMONT        CLOUDY    33  32  98 S5        29.97S WCI  28
MILLARD        CLOUDY    34  32  92 W3        29.99S
OFFUTT AFB     CLOUDY    32  32 100 SW3       29.99R
PLATTSMOUTH    CLOUDY    32  30  92 W6        29.99R FOG     WCI  27
WAHOO          CLOUDY    33  32  95 SW6       29.98R WCI  27
$$




USA.gov is the U.S. government's official web portal to all federal, state and local government web resources and services.